STARLINK-1728, 46582

Orbit data source: Space-Track

STARLINK-1728, 46582 is a payload satellite owned by SpaceX/Seattle (US) in LEO that was launched on Tue, 06 Oct 2020 UTC via an FALCON 9 launch vehicle from the Air Force Eastern Test Range (AFETR). Payloads include a variety of satellites, spacecraft, and rockets equipped with specific instruments for various scientific and technological missions. These include communications satellites like Starlink; space stations such as the ISS; scientific satellites like the Hubble; Earth observation satellites from companies like Planet Labs, Umbra, and HawkEye 360; GPS; miniature CubeSats for education and research; and military/defense satellites.

Loading next visibility...
STARLINK-1728 details
Identifier
46582, 2020-070BC
Orbit
LEO
Last TLE update12 hours ago
Origin
Flag of USSpaceX/Seattle (US)
ManufacturerSpaceX/Seattle
MissionOperational Commercial Communications
Bus & MotorSTARLINK, Unknown motor
Mass260 kg wet, ~248 kg dry
Launch date (UTC)
2020-10-06 (4 years ago)
Launch vehicle
FALCON 9
Launch site
Air Force Eastern Test Range (AFETR)
Object type
Payload
Rocket body
Debris
Shape & HBRBox + 1 Pan, 8.86 m
Radar Cross Section13.562 m², Large (>1 m²)

Expand to show TLE details & history

TLE from 12 hours ago
0 STARLINK-1728
1 46582U 20070BC  24361.18413824  .00021980  00000-0  14881-2 0  9995
2 46582  53.0568 325.1489 0001655  95.9268 264.1910 15.06445363233695
Epoch: 2024-12-26T04:25Z
Definitive object data (Epoch: 2024-12-26T04:25:09.543Z)
Latitude-0.00002°
Longitude163.69194°
Altitude548.068 km
Speed7.589 km/s
True Right ascension21h 40m 35s
True Declination0° 00' 00"
Sunlit
Object was in daylight at TLE epoch
Visualization TLE readout
Latitude-32.00074°
Longitude9.28557°
Altitude557.553 km
Speed7.582 km/s
Apparent Right ascension08h 09m 50s
Apparent Declination-51° 47' 20"
Sunlit
Object is in daylight
Visualization observer readout
Local Sidereal Time15:54:46
Azimuth232.406° WSW
Elevation-45.552°
Doppler factor1
Orbital elements
Apogee altitude548.489 km
Perigee altitude546.197 km
Semi-major axis6,925.48 km
Eccentricity0.0001655
Inclination53.0568°
RAAN325.1489°
Arg. of periapsis95.9268°
True anomaly264.17213°
Mean anomaly264.191°
Eccentric anomaly264.18157°
Mean motion3.7659 °/min
BSTAR0.0014881
Orbital period95.59 mins
Loading maneuver chart data...
Loading historical data...
Loading historical data...
Loading historical data...
Loading historical data...
Loading historical data...
Loading historical data...
Loading historical data...

STARLINK-1728 Visibility forecast

Observer location: undefined°, undefined

Span
Click to sort rows by Start time (UTC) header in descending order
Start Az.
Max El. time (UTC)
Max El. Az.
Max El.
End time (UTC)
End Az.
6 mins2024-12-26 23:40:35.132Z189.259° SSW2024-12-26 23:43:35.132Z135.502° SSE26.457°2024-12-26 23:46:35.132Z75.473° E
6 mins2024-12-27 01:20:35.132Z265.726° W2024-12-27 01:23:35.132Z345.157° N32.13°2024-12-27 01:26:35.132Z36.496° NE
6 mins2024-12-27 06:22:35.132Z334.822° NNW2024-12-27 06:24:35.132Z17.722° NNE29.402°2024-12-27 06:28:35.132Z96.875° ESE
5 mins2024-12-27 08:02:35.132Z277.398° WNW2024-12-27 08:04:35.132Z223.263° SW30.602°2024-12-27 08:07:35.132Z164.509° S
|